| time (UTC) | temp C | wind direction | speed KPH | gust KPH | rain 1hr cm | rain 24hr cm | rain mn cm | humidity % | barometer mb |
| 20260504214535 | 22 | 317 | 9.7 | 20.9 | 0.00 | 0.00 | 0.00 | 100 | 1012.0 |
| 20260504213031 | 22 | 5 | 14.5 | 24.1 | 0.00 | 0.00 | 0.00 | 100 | 1012.2 |
| 20260504211535 | 22 | 330 | 11.3 | 22.5 | 0.00 | 0.00 | 0.00 | 100 | 1012.3 |
| 20260504210022 | 22 | 340 | 9.7 | 29.0 | 0.00 | 0.00 | 0.00 | 100 | 1012.3 |
| 20260504204519 | 22 | 344 | 14.5 | 25.7 | 0.00 | 0.00 | 0.00 | 100 | 1012.4 |
| 20260504203016 | 22 | 57 | 11.3 | 22.5 | 0.00 | 0.00 | 0.00 | 100 | 1012.7 |
| 20260504201513 | 21 | 313 | 11.3 | 20.9 | 0.00 | 0.00 | 0.00 | 100 | 1013.3 |
| 20260504200009 | 20 | 5 | 11.3 | 22.5 | 0.00 | 0.00 | 0.00 | 100 | 1013.6 |
| 20260504194508 | 20 | 25 | 12.9 | 20.9 | 0.00 | 0.00 | 0.00 | 100 | 1014.1 |
| 20260504193008 | 19 | 5 | 14.5 | 32.2 | 0.00 | 0.00 | 0.00 | 100 | 1014.2 |
| 20260504191509 | 20 | 342 | 17.7 | 30.6 | 0.00 | 0.00 | 0.00 | 100 | 1013.9 |
| 20260504190007 | 20 | 336 | 14.5 | 29.0 | 0.00 | 0.00 | 0.00 | 100 | 1013.4 |
| 20260504184505 | 20 | 344 | 16.1 | 30.6 | 0.00 | 0.00 | 0.00 | 100 | 1013.3 |
| 20260504183008 | 20 | 12 | 12.9 | 25.7 | 0.00 | 0.00 | 0.00 | 100 | 1013.5 |
| 20260504181502 | 19 | 355 | 11.3 | 20.9 | 0.00 | 0.00 | 0.00 | 100 | 1013.3 |
| 20260504180100 | 19 | 346 | 11.3 | 27.4 | 0.00 | 0.00 | 0.00 | 100 | 1013.3 |
| 20260504174558 | 19 | 355 | 12.9 | 20.9 | 0.00 | 0.00 | 0.00 | 100 | 1013.4 |
| 20260504173058 | 18 | 340 | 14.5 | 27.4 | 0.00 | 0.00 | 0.00 | 100 | 1013.7 |
| 20260504171556 | 19 | 341 | 12.9 | 25.7 | 0.00 | 0.00 | 0.00 | 100 | 1013.9 |
| 20260504081540 | 10 | 346 | 8.0 | 19.3 | 0.00 | 0.00 | 0.00 | 100 | 1016.7 |
| 20260504050004 | 11 | 313 | 8.0 | 19.3 | 0.00 | 0.00 | 0.00 | 100 | 1018.6 |
| 20260504044600 | 11 | 329 | 6.4 | 14.5 | 0.00 | 0.00 | 0.00 | 100 | 1018.8 |
| 20260504043104 | 11 | 331 | 8.0 | 14.5 | 0.00 | 0.00 | 0.00 | 100 | 1018.9 |
| 20260504041554 | 11 | 326 | 4.8 | 12.9 | 0.00 | 0.00 | 0.00 | 100 | 1019.1 |
| 20260504040123 | 11 | 331 | 4.8 | 9.7 | 0.00 | 0.00 | 0.00 | 100 | 1019.2 |
| 20260504034550 | 11 | 323 | 3.2 | 12.9 | 0.00 | 0.00 | 0.00 | 100 | 1019.3 |
| 20260504033051 | 11 | 316 | 4.8 | 9.7 | 0.00 | 0.00 | 0.00 | 100 | 1019.4 |
| 20260504031600 | 12 | 322 | 6.4 | 14.5 | 0.00 | 0.00 | 0.00 | 100 | 1019.5 |
| 20260504030049 | 12 | 323 | 6.4 | 12.9 | 0.00 | 0.00 | 0.00 | 100 | 1019.8 |
| 20260504024550 | 10 | 325 | 3.2 | 9.7 | 0.00 | 0.00 | 0.00 | 100 | 1019.8 |
| 20260504023048 | 10 | 152 | 0.0 | 0.0 | 0.00 | 0.00 | 0.00 | 100 | 1019.7 |
| 20260504021549 | 10 | 152 | 0.0 | 3.2 | 0.00 | 0.00 | 0.00 | 100 | 1019.8 |
| 20260504014547 | 11 | 152 | 0.0 | 0.0 | 0.00 | 0.00 | 0.00 | 100 | 1019.8 |
| 20260504013047 | 11 | 152 | 0.0 | 1.6 | 0.00 | 0.00 | 0.00 | 100 | 1019.8 |
| 20260504011546 | 11 | 152 | 0.0 | 1.6 | 0.00 | 0.00 | 0.00 | 100 | 1019.7 |
| 20260504010049 | 11 | 152 | 0.0 | 3.2 | 0.00 | 0.00 | 0.00 | 100 | 1019.6 |
| 20260504004545 | 11 | 152 | 1.6 | 3.2 | 0.00 | 0.00 | 0.00 | 100 | 1019.7 |
| 20260504003045 | 11 | 146 | 0.0 | 3.2 | 0.00 | 0.00 | 0.00 | 100 | 1019.3 |
| 20260504001550 | 11 | 107 | 0.0 | 1.6 | 0.00 | 0.00 | 0.00 | 100 | 1019.4 |
| 20260504000041 | 12 | 107 | 0.0 | 1.6 | 0.00 | 0.00 | 0.00 | 100 | 1019.6 |
| 20260503234600 | 12 | 107 | 0.0 | 1.6 | 0.00 | 0.00 | 0.00 | 100 | 1019.7 |
| 20260503233045 | 12 | 107 | 0.0 | 1.6 | 0.00 | 0.00 | 0.00 | 100 | 1020.1 |
| 20260503231536 | 12 | 106 | 0.0 | 1.6 | 0.00 | 0.00 | 0.00 | 100 | 1020.3 |
| 20260503230034 | 12 | 106 | 0.0 | 3.2 | 0.00 | 0.00 | 0.00 | 100 | 1020.6 |
| 20260503224534 | 12 | 53 | 0.0 | 3.2 | 0.00 | 0.00 | 0.00 | 100 | 1020.6 |
| 20260503223033 | 12 | 52 | 0.0 | 1.6 | 0.00 | 0.00 | 0.00 | 100 | 1020.8 |
| 20260503221536 | 11 | 52 | 0.0 | 1.6 | 0.00 | 0.00 | 0.00 | 100 | 1020.9 |
| 20260503220031 | 11 | 44 | 1.6 | 22.5 | 0.00 | 0.00 | 0.00 | 100 | 1021.1 |